Home   Weather   Recife   Past weeks

Flag for Brazil Past Weather in Recife, Pernambuco, Brazil — Yesterday and Last 2 Weeks

79 °F

Passing clouds.

Feels Like: 82 °F
Forecast: 78 / 83 °F
Wind: 9 mph from Southeast

Location: Recife Aeroporto

Current Time: Oct 24, 2016 at 2:23:20 AM

Latest Report: Oct 24, 2016 at 2:00 AM

Visibility: N/A

Pressure: 29.92 "Hg

Humidity: 79%

Dew Point: 72 °F

Location of RecifeLocation

Past Weather in Recife — Graph


Recife Temperature Yesterday

Maximum temperature yesterday: 86 °F (at 1:00 PM)
Minimum temperature yesterday: 79 °F (at 1:00 AM)
Average temperature yesterday: 81 °F

High & Low Weather Summary for the Past Weeks

High86 °F (Oct 9, 12:00 PM)89% (Oct 12, 8:00 PM)30.07 "Hg (Oct 12, 8:00 PM)
Low75 °F (Oct 15, 4:00 AM)62% (Oct 9, 12:00 PM)29.86 "Hg (Oct 10, 7:00 PM)
Average81 °F75%29.95 "Hg
* Reported Oct 9 1:00 AM — Oct 24 1:00 AM, Recife, Weather by CustomWeather, © 2016

Note: Actual official high and low records may vary slightly from our data, if they occured in-between our weather recording intervals... More about our weather records


Recife Weather History for the Previous 24 Hours

Scroll right to see more
Time TempWeatherWind HumidityBarometerVisibility
1:00 AM
Mon, Oct 24
79 °FPassing clouds.8 mph79%29.92 "HgN/A
12:00 AM81 °FPassing clouds.8 mph74%29.95 "HgN/A
11:00 PM
Sun, Oct 23
81 °FPassing clouds.12 mph74%29.98 "HgN/A
10:00 PM81 °FPassing clouds.10 mph74%30.01 "HgN/A
9:00 PM81 °FPassing clouds.12 mph74%30.01 "HgN/A
8:00 PM81 °FPassing clouds.12 mph74%29.98 "HgN/A
7:00 PM81 °FPassing clouds.12 mph79%29.98 "HgN/A
6:00 PM81 °FPassing clouds.12 mph79%29.95 "HgN/A
5:00 PM82 °FScattered clouds.12 mph74%29.95 "HgN/A
4:00 PM82 °FScattered clouds.13 mph74%29.92 "HgN/A
3:00 PM84 °FScattered clouds.13 mph70%29.92 "HgN/A
2:00 PM84 °FScattered clouds.15 mph70%29.92 "HgN/A
1:00 PM86 °FScattered clouds.13 mph70%29.92 "HgN/A
12:00 PM84 °FScattered clouds.12 mph74%29.95 "HgN/A
11:00 AM81 °FScattered showers. Scattered clouds.7 mph84%N/AN/A
10:00 AM84 °FScattered clouds.13 mph74%30.01 "HgN/A
9:00 AM82 °FScattered clouds.15 mph79%30.01 "HgN/A
8:00 AM81 °FBroken clouds.9 mph84%30.01 "HgN/A
7:00 AM79 °FScattered showers. Partly sunny.7 mph84%29.98 "HgN/A
6:00 AM81 °FPartly sunny.10 mph79%29.95 "HgN/A
5:00 AM79 °FScattered clouds.12 mph79%29.92 "HgN/A
4:00 AM79 °FPassing clouds.8 mph79%29.92 "HgN/A
3:00 AM79 °FPassing clouds.7 mph79%29.92 "HgN/A
2:00 AM81 °FPassing clouds.9 mph79%29.92 "HgN/A
Weather by CustomWeather, © 2016

See weather overviewHow to use our weather pages